Location: Helion Bumpstead
(52.0500°N, 0.4000°E)
Time: 21:20:06
(UTC+00:00)

Cosmos 2369 Rocket - Pass Details

Date: 15 November 2025
Orbit: 826 x 852 km, 71.0° (Epoch: 06 December)

Event Time Altitude Azimuth Distance (km) Brightness Sun altitude
Exits shadow 03:41:32 25° 10° (N) 1,643 3.8 -33.0°
Maximum altitude 03:43:20 30° 42° (NE) 1,478 3.8 -32.8°
Drops below altitude 10° 03:48:18 10° 103° (ESE) 2,479 5.4 -32.0°
Sets 03:51:04 0° 114° (ESE) 3,414 6.1 -31.6°
